This is the latest recevied weather packets stored in our database for station/object N2ZVN. If no packets are shown the sender has not sent any weather packets the latest 10 day(s).
| Time | Temp. | Humidity | Pressure | Rain* | Wind** | Luminosity | Snow |
|---|---|---|---|---|---|---|---|
| 1787873285 | 22.22° C | 87% | 1013.1 hPa | 0 mm | - | 10 W/m² | - |
| 1787872983 | 22.22° C | 88% | 1013.1 hPa | 0 mm | - | 13 W/m² | - |
| 1787872679 | 21.67° C | 87% | 1013.2 hPa | 0 mm | - | 13 W/m² | - |
| 1787872375 | 22.22° C | 91% | 1013.3 hPa | 0 mm | - | 14 W/m² | - |
| 1787872075 | 22.22° C | 91% | 1013.1 hPa | 0 mm | - | 14 W/m² | - |
| 1787871769 | 22.22° C | 89% | 1013 hPa | 0 mm | - | 15 W/m² | - |
| 1787871465 | 22.78° C | 87% | 1013.1 hPa | 0 mm | - | 16 W/m² | - |
| 1787871160 | 22.78° C | 86% | 1013.1 hPa | 0 mm | - | 17 W/m² | - |
| 1787870860 | 23.33° C | 85% | 1013.1 hPa | 0 mm | - | 18 W/m² | - |
| 1787870554 | 23.33° C | 82% | 1012.9 hPa | 0 mm | - | 19 W/m² | - |
| 1787870250 | 23.89° C | 79% | 1012.8 hPa | 0 mm | - | 20 W/m² | - |
| 1787869945 | 23.89° C | 79% | 1012.8 hPa | 0 mm | - | 22 W/m² | - |
| 1787869644 | 23.89° C | 78% | 1012.9 hPa | 0 mm | - | 22 W/m² | - |
| 1787869339 | 23.89° C | 78% | 1012.7 hPa | 0 mm | - | 22 W/m² | - |
| 1787869038 | 23.89° C | 78% | 1013 hPa | 0 mm | - | 24 W/m² | - |
| 1787868737 | 23.89° C | 81% | 1012.9 hPa | 0 mm | - | 24 W/m² | - |
| 1787868436 | 23.89° C | 79% | 1012.9 hPa | 0 mm | - | 26 W/m² | - |
| 1787868135 | 23.89° C | 84% | 1012.9 hPa | 0 mm | - | 27 W/m² | - |
| 1787867831 | 23.89° C | 84% | 1012.9 hPa | 0 mm | - | 46 W/m² | - |
| 1787867526 | 23.89° C | 83% | 1012.7 hPa | 0 mm | - | 66 W/m² | - |
| 1787867221 | 23.89° C | 79% | 1012.8 hPa | 0 mm | - | 43 W/m² | - |
| 1787866916 | 23.89° C | 79% | 1012.9 hPa | 0 mm | - | 35 W/m² | - |
| 1787866612 | 23.89° C | 79% | 1012.6 hPa | 0 mm | - | 34 W/m² | - |
| 1787866309 | 23.89° C | 80% | 1012.7 hPa | 0 mm | - | 37 W/m² | - |
| 1787866005 | 23.89° C | 81% | 1012.6 hPa | 0 mm | - | 29 W/m² | - |
* Rain latest hour (hover to see other rain measurements)
** Current wind speed in m/s (hover to see current wind gust speed)